Tracking 30061 objects as of 8-Dec-2024
HD Live streaming from Space Station
objects crossing your sky now

IRIDIUM 177

Track IRIDIUM 177 now!
10-day predictions
IRIDIUM 177 is classified as:


NORAD ID: 56727
Int'l Code: 2023-068T
Perigee: 634.2 km
Apogee: 637.3 km
Inclination: 86.2 °
Period: 97.3 minutes
Semi major axis: 7006 km
RCS: Unknown
Launch date: May 20, 2023
Source: United States (US)
Launch site: AIR FORCE WESTERN TEST RANGE (AFWTR)
Your satellite tracking list
Your tracking list is empty




NASA's NSSDC Master Catalog

Two Line Element Set (TLE):
1 56727U 23068T   24342.96134368  .00002672  00000-0  34818-3 0  9995
2 56727  86.1990 232.8306 0002169  78.0449 282.1015 14.80220628 84088
Source of the keplerian elements: AFSPC